Weather History for KSYR - July, 2013

Change the Weather History Date:

Sunday, July 21, 2013

  Actual Average Record
Temperature  
Mean Temperature 71 °F 72 °F  
Max Temperature 80 °F 82 °F 101 °F (2011)
Min Temperature 62 °F 61 °F 46 °F (1965)
Degree Days  
Heating Degree Days 0 0  
Month to date heating degree days 0 2  
Since 1 June heating degree days 61 63  
Since 1 July heating degree days 0 2  
Cooling Degree Days 6 7  
Month to date cooling degree days 265 139  
Year to date cooling degree days 441 282  
Since 1 June cooling degree days 389 252  
Growing Degree Days 21 (Base 50)    
Moisture  
Dew Point 60 °F    
Average Humidity 69    
Maximum Humidity 93    
Minimum Humidity 45    
Precipitation  
Precipitation 0.00 in 0.12 in 1.57 in (1988)
Month to date precipitation 1.46 2.57  
Year to date precipitation 22.20 19.81  
Snow  
Snow 0.00 in 0.00 in 0.00 in (2002)
Month to date snowfall 0.0 0.0  
Since 1 June snowfall 0.0 0.0  
Since 1 July snowfall 0.0 0.0  
Snow Depth 0.00 in    
Sea Level Pressure  
Sea Level Pressure 29.94 in    
Wind  
Wind Speed 5 mph (NW)    
Max Wind Speed 12 mph    
Max Gust Speed 16 mph    
Visibility 10 miles    
Events      
T = Trace of Precipitation, MM = Missing Value Source: NWS Daily Summary

Daily Weather History Graph

Daily Weather History Graph

Search for Another Location

Airport or City:

Trip Planner

Search our weather history database for the weather conditions in past years. The results will help you decide how hot, cold, wet, or windy it might be!

Date:

Astronomy

Jul. 21, 2013 Rise Set
Actual Time 5:44 AM EDT 8:37 PM EDT
Civil Twilight 5:10 AM EDT 9:10 PM EDT
Nautical Twilight 4:28 AM EDT 9:52 PM EDT
Astronomical Twilight 3:38 AM EDT 10:42 PM EDT
Moon 7:31 PM EDT (7/21) 4:27 AM EDT (7/21)
Length of Visible Light 15h 59m
Length of Day
14h 52m
Waxing Gibbous, 98% of the Moon is Illuminated
Jul 21
Waxing Gibbous
Jul 22
Full
Jul 29
Last Quarter
Aug 6
New
Aug 14
First Quarter

Hourly Weather History & Observations

Time (EDT) Temp. Heat Index Dew Point Humidity Pressure Visibility Wind Dir Wind Speed Gust Speed Precip Events Conditions
12:54 AM 66.9 °F - 62.1 °F 84% 29.86 in 10.0 mi Calm Calm - N/A   Scattered Clouds
1:54 AM 66.0 °F - 62.1 °F 87% 29.87 in 10.0 mi South 3.5 mph - N/A   Scattered Clouds
2:54 AM 64.9 °F - 61.0 °F 87% 29.88 in 10.0 mi Calm Calm - N/A   Scattered Clouds
3:54 AM 64.0 °F - 61.0 °F 90% 29.89 in 10.0 mi Calm Calm - N/A   Scattered Clouds
4:54 AM 63.0 °F - 61.0 °F 93% 29.90 in 10.0 mi Calm Calm - N/A   Mostly Cloudy
5:54 AM 63.0 °F - 60.1 °F 90% 29.90 in 10.0 mi Calm Calm - N/A   Scattered Clouds
6:54 AM 64.9 °F - 62.1 °F 90% 29.92 in 10.0 mi Calm Calm - N/A   Scattered Clouds
7:54 AM 66.9 °F - 62.1 °F 84% 29.94 in 10.0 mi West 6.9 mph - N/A   Mostly Cloudy
8:54 AM 69.1 °F - 62.1 °F 78% 29.95 in 10.0 mi WNW 4.6 mph - N/A   Overcast
9:54 AM 70.0 °F - 63.0 °F 78% 29.97 in 10.0 mi WNW 8.1 mph - N/A   Overcast
10:54 AM 71.1 °F - 63.0 °F 75% 29.97 in 10.0 mi NW 6.9 mph - N/A   Mostly Cloudy
11:54 AM 75.9 °F - 59.0 °F 56% 29.98 in 10.0 mi Variable 6.9 mph - N/A   Scattered Clouds
12:54 PM 78.1 °F - 57.9 °F 50% 29.98 in 10.0 mi NW 10.4 mph - N/A   Scattered Clouds
1:54 PM 78.1 °F - 59.0 °F 52% 29.97 in 10.0 mi Variable 6.9 mph - N/A   Scattered Clouds
2:54 PM 80.1 °F 80.6 °F 57.9 °F 47% 29.97 in 10.0 mi NW 11.5 mph - N/A   Scattered Clouds
3:54 PM 80.1 °F 80.6 °F 57.9 °F 47% 29.96 in 10.0 mi NW 6.9 mph - N/A   Scattered Clouds
4:54 PM 79.0 °F - 57.9 °F 48% 29.95 in 10.0 mi NNW 6.9 mph - N/A   Mostly Cloudy
5:54 PM 78.1 °F - 57.9 °F 50% 29.95 in 10.0 mi NNW 6.9 mph - N/A   Mostly Cloudy
6:54 PM 77.0 °F - 57.9 °F 52% 29.95 in 10.0 mi NNW 5.8 mph - N/A   Mostly Cloudy
7:54 PM 73.9 °F - 59.0 °F 59% 29.96 in 10.0 mi NNW 8.1 mph - N/A   Mostly Cloudy
8:54 PM 70.0 °F - 57.9 °F 65% 29.96 in 10.0 mi NNW 5.8 mph - N/A   Mostly Cloudy
9:54 PM 69.1 °F - 57.9 °F 68% 29.97 in 10.0 mi NNW 3.5 mph - N/A   Mostly Cloudy
10:54 PM 66.9 °F - 57.0 °F 70% 29.98 in 10.0 mi Calm Calm - N/A   Mostly Cloudy
11:54 PM 66.0 °F - 59.0 °F 78% 29.98 in 10.0 mi Calm Calm - N/A   Scattered Clouds